GW2294 Weather Reports


Display with metric or nautical units.
time (UTC)temp
F
wind
direction
speed
MPH
gust
MPH
rain 1hr
in
rain 24hr
in
rain mn
in
humidity
%
barometer
mb
20260505164446 62 242 5.0 11.0 0.00 0.05 0.05 59 1007.8
20260505163941 63 197 5.0 12.0 0.00 0.06 0.05 57 1007.7
20260505163435 63 215 6.0 14.0 0.00 0.06 0.05 57 1007.7
20260505163411 63 211 6.0 14.0 0.00 0.06 0.05 56 1007.7
20260505162423 63 255 5.0 12.0 0.00 0.06 0.05 56 1007.7
20260505162357 64 242 5.0 10.0 0.00 0.06 0.05 57 1007.5
20260505161410 64 221 4.0 10.0 0.00 0.07 0.05 56 1007.5
20260505160905 65 227 3.0 10.0 0.00 0.08 0.05 56 1007.5
20260505160359 65 249 2.0 8.0 0.00 0.08 0.05 57 1007.6
20260505152854 63 47 0.0 4.0 0.00 0.14 0.05 64 1007.6
20260505152352 62 281 0.0 0.0 0.00 0.15 0.05 66 1007.7
20260505151849 62 281 1.0 5.0 0.00 0.16 0.05 67 1007.6
20260505151348 62 281 1.0 8.0 0.00 0.17 0.05 67 1007.7
20260505150846 62 281 3.0 9.0 0.00 0.17 0.05 66 1007.8
20260505150345 62 229 2.0 9.0 0.00 0.18 0.05 63 1007.7
20260505140339 63 265 3.0 8.0 0.00 0.19 0.05 64 1007.5
20260505124833 63 167 0.0 0.0 0.00 0.19 0.05 80 1007.7
20260505124333 62 173 0.0 0.0 0.00 0.19 0.05 74 1007.7
20260505124315 62 192 0.0 0.0 0.00 0.19 0.05 74 1007.7
20260505123336 63 192 0.0 0.0 0.00 0.19 0.05 75 1007.7
20260505122832 63 190 0.0 0.0 0.00 0.19 0.05 76 1007.8
20260505122326 63 139 0.0 0.0 0.00 0.19 0.05 77 1007.8
20260505121820 62 51 0.0 0.0 0.00 0.19 0.05 77 1007.8
20260505121313 62 48 0.0 0.0 0.00 0.19 0.05 75 1007.9
20260505120808 62 41 0.0 0.0 0.00 0.19 0.05 76 1007.9
20260505120302 62 43 0.0 0.0 0.00 0.19 0.05 78 1007.8
20260505120238 61 42 0.0 0.0 0.00 0.19 0.05 78 1007.9
20260505115250 61 42 0.0 0.0 0.00 0.19 0.05 76 1008.0
20260505114744 62 43 0.0 0.0 0.00 0.19 0.05 76 1008.0
20260505114238 62 44 0.0 0.0 0.00 0.19 0.05 75 1008.0
20260505113732 62 44 0.0 0.0 0.00 0.19 0.05 76 1008.1
20260505113714 62 304 0.0 0.0 0.00 0.19 0.05 79 1008.1
20260505112720 62 304 0.0 0.0 0.00 0.19 0.05 77 1008.2
20260505112650 61 326 0.0 0.0 0.00 0.19 0.05 78 1008.2
20260505111708 61 46 0.0 0.0 0.00 0.19 0.05 78 1008.4
20260505111514 61 46 0.0 0.0 0.00 0.19 0.05 79 1008.4
20260505111436 60 45 0.0 0.0 0.00 0.19 0.05 81 1008.5
20260505110505 59 46 0.0 0.0 0.00 0.19 0.05 82 1008.6
20260505110415 59 44 0.0 0.0 0.00 0.19 0.05 82 1008.5
20260505101556 57 259 0.0 0.0 0.00 0.19 0.05 83 1008.9
20260505101050 57 259 0.0 0.0 0.00 0.19 0.05 82 1008.8
20260505100543 57 259 0.0 0.0 0.00 0.19 0.05 80 1008.8
20260505100526 57 259 0.0 0.0 0.00 0.19 0.05 81 1008.8
20260505095532 57 259 0.0 0.0 0.00 0.19 0.05 78 1008.7
20260505095026 57 259 0.0 0.0 0.00 0.19 0.05 80 1008.8
20260505094519 57 259 0.0 0.0 0.00 0.19 0.05 84 1008.8
20260505094239 57 259 0.0 0.0 0.00 0.19 0.05 83 1008.8
20260505093509 57 259 0.0 0.0 0.00 0.19 0.05 85 1008.8
20260505093002 56 215 0.0 0.0 0.00 0.19 0.05 86 1008.7
20260505092953 56 201 0.0 0.0 0.00 0.19 0.05 87 1008.7
20260505091950 56 201 0.0 0.0 0.00 0.19 0.05 88 1008.7
20260505091444 56 200 0.0 0.0 0.00 0.19 0.05 87 1008.7
20260505090938 56 200 0.0 0.0 0.00 0.19 0.05 87 1008.7
20260505090924 56 200 0.0 0.0 0.00 0.19 0.05 88 1008.8
20260505085925 56 135 0.0 0.0 0.00 0.19 0.05 87 1008.7
20260505085420 56 135 0.0 0.0 0.00 0.19 0.05 88 1008.8
20260505084913 56 135 0.0 0.0 0.00 0.19 0.05 89 1008.7
20260505084408 56 136 0.0 0.0 0.00 0.19 0.05 89 1008.7
20260505084356 55 136 0.0 0.0 0.00 0.19 0.05 90 1008.9
20260505083356 55 136 0.0 0.0 0.00 0.19 0.05 90 1008.8
20260505082851 55 136 0.0 0.0 0.00 0.19 0.05 90 1008.8
20260505082344 54 136 0.0 0.0 0.01 0.19 0.05 89 1008.9
20260505081838 54 136 0.0 0.0 0.01 0.19 0.05 89 1009.0
20260505081815 54 136 0.0 0.0 0.02 0.19 0.05 91 1009.0
20260505080826 54 136 0.0 0.0 0.02 0.19 0.05 91 1009.1
20260505080806 54 136 0.0 0.0 0.03 0.19 0.05 91 1009.3
20260505075814 54 136 0.0 0.0 0.03 0.19 0.05 92 1009.3
20260505075308 54 136 0.0 0.0 0.04 0.19 0.05 92 1009.3
20260505074802 53 136 0.0 0.0 0.04 0.19 0.05 93 1009.4
20260505074257 53 136 0.0 0.0 0.04 0.19 0.05 93 1009.4
20260505073749 53 136 0.0 0.0 0.04 0.19 0.05 92 1009.5
20260505073243 53 136 0.0 0.0 0.04 0.19 0.05 93 1009.6
20260505072738 53 136 0.0 0.0 0.04 0.19 0.05 93 1009.6
20260505072232 53 136 0.0 0.0 0.03 0.18 0.04 93 1009.7
20260505071726 53 136 0.0 0.0 0.03 0.17 0.03 93 1009.6
20260505071220 53 136 0.0 0.0 0.03 0.17 0.03 93 1009.7
20260505070714 52 136 0.0 0.0 0.02 0.17 0.02 93 1009.8
20260505070208 52 136 0.0 0.0 0.02 0.16 0.02 93 1009.8
20260505065929 52 136 0.0 0.0 0.02 0.16 0.02 93 1009.8
20260505065156 52 136 0.0 0.0 0.01 0.15 0.01 93 1009.7
20260505064650 52 136 0.0 0.0 0.01 0.15 0.01 93 1009.7
20260505064145 52 136 0.0 0.0 0.01 0.15 0.01 93 1009.8
20260505064118 52 136 0.0 0.0 0.01 0.15 0.01 93 1009.7
20260505063132 52 136 0.0 0.0 0.01 0.15 0.01 93 1009.7
20260505062626 52 136 0.0 0.0 0.01 0.15 0.01 93 1009.8
20260505062120 52 136 0.0 0.0 0.01 0.15 0.01 94 1009.8
20260505061614 52 136 0.0 0.0 0.00 0.14 0.00 94 1009.8
20260505061108 52 136 0.0 0.0 0.00 0.14 0.00 94 1009.8
20260505060602 52 136 0.0 0.0 0.00 0.14 0.00 94 1009.9
20260505060056 52 136 0.0 0.0 0.00 0.14 0.00 94 1009.8
20260505055550 52 136 0.0 0.0 0.00 0.14 0.00 94 1009.8
20260505055540 51 136 0.0 0.0 0.00 0.14 0.00 94 1009.9
20260505054547 51 136 0.0 0.0 0.00 0.14 0.00 95 1009.8
20260505054046 51 136 0.0 0.0 0.00 0.14 0.00 94 1009.8
20260505053543 51 136 0.0 0.0 0.00 0.14 0.00 94 1009.8
20260505053042 51 136 0.0 0.0 0.00 0.14 0.00 95 1009.9
20260505052538 51 136 0.0 0.0 0.00 0.14 0.00 95 1009.8
20260505052040 51 136 0.0 0.0 0.00 0.14 0.00 95 1009.7
20260505052022 51 136 0.0 0.0 0.00 0.14 0.00 95 1009.7
20260505051038 51 136 0.0 0.0 0.00 0.14 0.00 95 1009.7
20260505050535 51 136 0.0 0.0 0.00 0.14 0.00 95 1009.7
20260505041520 50 136 0.0 0.0 0.00 0.14 0.00 94 1009.8
20260505041022 50 136 0.0 0.0 0.00 0.14 0.00 95 1009.7
20260505040521 50 136 0.0 0.0 0.00 0.14 0.00 95 1009.8
20260505040022 50 136 0.0 0.0 0.00 0.14 0.00 95 1009.7
20260505035838 50 136 0.0 0.0 0.00 0.14 0.00 95 1009.7
20260505035746 50 136 0.0 0.0 0.00 0.14 0.00 95 1009.7
20260505034521 50 136 0.0 0.0 0.00 0.14 0.00 95 1009.6
20260505034021 50 136 0.0 0.0 0.00 0.14 0.00 95 1009.6
20260505033522 50 136 0.0 0.0 0.00 0.14 0.00 95 1009.7
20260505033018 50 136 0.0 0.0 0.00 0.14 0.00 95 1009.7
20260505032830 50 136 0.0 0.0 0.00 0.14 0.00 95 1009.8
20260505032746 50 136 0.0 0.0 0.00 0.14 0.00 95 1009.8
20260505031518 50 136 0.0 0.0 0.00 0.14 0.00 95 1009.8
20260505031017 50 136 0.0 0.0 0.00 0.14 0.00 95 1010.0
20260505030957 50 136 0.0 0.0 0.00 0.14 0.00 95 1010.1
20260505030016 50 136 0.0 0.0 0.00 0.14 0.00 95 1010.0
20260505025517 50 136 0.0 0.0 0.00 0.14 0.00 95 1010.0
20260505025017 50 136 0.0 0.0 0.00 0.14 0.00 94 1010.0
20260505024513 50 136 0.0 0.0 0.00 0.14 0.00 94 1010.0
20260505024456 50 136 0.0 0.0 0.00 0.14 0.00 94 1010.1
20260505023513 50 136 0.0 0.0 0.00 0.14 0.00 94 1010.0
20260505023013 50 136 0.0 0.0 0.00 0.14 0.00 94 1010.1
20260505022514 50 136 0.0 0.0 0.00 0.14 0.00 94 1010.2
20260505022015 50 136 0.0 0.0 0.00 0.14 0.00 94 1010.2
20260505021514 50 136 0.0 0.0 0.00 0.14 0.00 94 1010.2
20260505021015 50 136 0.0 0.0 0.00 0.14 0.00 94 1010.3
20260505020515 50 136 0.0 0.0 0.00 0.14 0.00 94 1010.3
20260505020006 50 136 0.0 0.0 0.00 0.14 0.00 94 1010.3
20260505015502 50 136 0.0 0.0 0.00 0.14 0.00 94 1010.3
20260505014956 50 136 0.0 0.0 0.00 0.14 0.00 94 1010.3
20260505014451 50 136 0.0 0.0 0.00 0.14 0.00 94 1010.3
20260505013944 50 136 0.0 0.0 0.00 0.14 0.00 94 1010.3
20260505013438 50 136 0.0 0.0 0.00 0.14 0.00 94 1010.3
20260505012932 50 136 0.0 0.0 0.00 0.14 0.00 94 1010.4
20260505012426 50 136 0.0 0.0 0.00 0.14 0.00 94 1010.4
20260505011921 50 136 0.0 0.0 0.00 0.14 0.00 94 1010.5
20260505011414 50 136 0.0 0.0 0.00 0.14 0.00 94 1010.6
20260505011402 50 136 0.0 0.0 0.00 0.14 0.00 94 1010.7
20260505010402 50 136 0.0 0.0 0.00 0.14 0.00 94 1010.7
20260505005856 50 136 0.0 0.0 0.00 0.14 0.00 94 1010.9
20260505005350 50 136 0.0 0.0 0.00 0.14 0.00 93 1010.9
20260505004844 50 136 0.0 0.0 0.00 0.14 0.00 93 1011.1
20260505004338 50 136 0.0 0.0 0.00 0.14 0.00 93 1011.1
20260505003832 50 136 0.0 0.0 0.00 0.14 0.00 93 1011.2
20260505003326 50 136 0.0 0.0 0.00 0.14 0.00 93 1011.2
20260505003309 50 136 0.0 0.0 0.00 0.14 0.00 93 1011.4
20260505002314 50 136 0.0 0.0 0.00 0.14 0.00 93 1011.4
20260505001808 50 136 0.0 0.0 0.00 0.14 0.00 93 1011.4
20260505001302 51 136 0.0 0.0 0.00 0.14 0.00 93 1011.4
20260505000756 51 136 0.0 0.0 0.00 0.14 0.00 93 1011.5
20260505000250 51 136 0.0 0.0 0.00 0.14 0.00 93 1011.5
20260504235744 51 136 0.0 0.0 0.00 0.14 0.00 94 1011.5
20260504235237 51 136 0.0 0.0 0.00 0.14 0.00 94 1011.8
20260504234732 51 136 0.0 0.0 0.00 0.14 0.00 94 1011.7
20260504234717 51 136 0.0 0.0 0.00 0.14 0.00 94 1011.7
20260504233720 51 136 0.0 0.0 0.00 0.14 0.00 94 1011.8
20260504233214 51 136 0.0 0.0 0.00 0.14 0.00 94 1011.8
20260504232708 51 136 0.0 0.0 0.00 0.14 0.00 94 1012.0
20260504232202 51 136 0.0 0.0 0.00 0.14 0.00 94 1012.0
20260504231656 51 136 0.0 0.0 0.00 0.14 0.00 93 1012.0
20260504231150 51 136 0.0 0.0 0.00 0.14 0.00 93 1012.2
20260504230644 51 136 0.0 0.0 0.00 0.14 0.00 93 1012.2
20260504230138 51 136 0.0 0.0 0.00 0.14 0.00 93 1012.1
20260504225633 51 135 0.0 0.0 0.00 0.14 0.00 93 1012.2
20260504225126 51 135 0.0 0.0 0.00 0.14 0.00 93 1012.2
20260504224621 51 135 0.0 0.0 0.00 0.14 0.00 93 1012.2
20260504224114 51 135 0.0 0.0 0.00 0.14 0.00 93 1012.1
20260504223608 52 135 0.0 0.0 0.00 0.14 0.00 93 1012.0
20260504223555 52 135 0.0 0.0 0.00 0.14 0.00 93 1012.1
20260504222556 52 135 0.0 0.0 0.00 0.14 0.00 93 1012.1
20260504222050 52 135 0.0 0.0 0.00 0.14 0.00 93 1012.2
20260504221544 52 135 0.0 0.0 0.00 0.14 0.00 93 1012.2
20260504221038 52 135 0.0 0.0 0.00 0.14 0.00 93 1012.2
20260504220532 52 135 0.0 0.0 0.00 0.14 0.00 93 1012.2
20260504220026 52 135 0.0 0.0 0.00 0.14 0.00 92 1012.1
20260504215520 53 134 0.0 0.0 0.00 0.14 0.14 92 1012.1
20260504215013 53 134 0.0 0.0 0.00 0.14 0.14 92 1012.2
20260504214508 53 134 0.0 0.0 0.00 0.14 0.14 92 1012.2
20260504214441 53 134 0.0 0.0 0.00 0.14 0.14 92 1012.2
20260504213456 53 134 0.0 0.0 0.00 0.14 0.14 92 1012.2
20260504212950 54 134 0.0 0.0 0.00 0.14 0.14 92 1012.2
20260504212445 54 134 0.0 0.0 0.00 0.14 0.14 92 1012.2
20260504211950 54 134 0.0 0.0 0.00 0.14 0.14 92 1012.2
20260504211433 54 134 0.0 0.0 0.00 0.14 0.14 92 1012.3
20260504210926 54 134 0.0 0.0 0.00 0.14 0.14 92 1012.4
20260504210905 55 134 0.0 0.0 0.00 0.14 0.14 92 1012.5
20260504205915 55 134 0.0 0.0 0.00 0.14 0.14 92 1012.4
20260504205408 55 134 0.0 0.0 0.00 0.14 0.14 92 1012.4
20260504204902 55 134 0.0 0.0 0.00 0.14 0.14 93 1012.5
20260504204356 55 134 0.0 0.0 0.00 0.14 0.14 93 1012.7
20260504203850 55 134 0.0 0.0 0.00 0.14 0.14 93 1012.8
20260504203834 56 5 0.0 0.0 0.00 0.14 0.14 93 1012.7
20260504202838 56 5 0.0 0.0 0.00 0.14 0.14 93 1012.8
20260504202333 56 5 0.0 0.0 0.00 0.14 0.14 93 1012.7
20260504201826 56 5 0.0 0.0 0.00 0.14 0.14 93 1012.7
20260504201809 56 5 0.0 0.0 0.00 0.14 0.14 93 1012.8
20260504200814 56 5 0.0 0.0 0.00 0.14 0.14 93 1012.8
20260504200308 56 5 0.0 0.0 0.00 0.14 0.14 93 1012.7
20260504195802 56 5 0.0 0.0 0.00 0.14 0.14 93 1012.8
20260504195256 56 5 0.0 0.0 0.00 0.14 0.14 93 1012.7
20260504194750 56 5 0.0 0.0 0.00 0.14 0.14 93 1012.6
20260504194245 56 5 0.0 0.0 0.00 0.14 0.14 93 1012.5
20260504194223 56 5 0.0 0.0 0.00 0.14 0.14 93 1012.5
20260504193232 56 5 0.0 0.0 0.00 0.14 0.14 93 1012.5
20260504192727 56 5 0.0 0.0 0.00 0.14 0.14 92 1012.4
20260504192220 56 5 0.0 0.0 0.00 0.14 0.14 92 1012.5
20260504192020 56 5 0.0 0.0 0.00 0.14 0.14 92 1012.5
20260504191932 56 5 0.0 0.0 0.00 0.14 0.14 92 1012.4
20260504190703 56 5 0.0 0.0 0.00 0.14 0.14 92 1012.4
20260504190156 57 5 0.0 0.0 0.00 0.14 0.14 92 1012.4
20260504185650 57 5 0.0 0.0 0.00 0.14 0.14 92 1012.3
20260504185144 57 5 0.0 0.0 0.00 0.14 0.14 92 1012.3
20260504184638 57 5 0.0 0.0 0.00 0.14 0.14 92 1012.3
20260504184612 57 5 0.0 0.0 0.00 0.14 0.14 92 1012.4
20260504183626 57 5 0.0 0.0 0.00 0.14 0.14 92 1012.5
20260504183120 57 5 0.0 0.0 0.00 0.14 0.14 92 1012.5
20260504182614 57 5 0.0 0.0 0.00 0.14 0.14 92 1012.5
20260504182108 57 5 0.0 0.0 0.00 0.14 0.14 92 1012.5
20260504181602 57 5 0.0 0.0 0.00 0.14 0.14 92 1012.5
20260504181056 57 5 0.0 0.0 0.00 0.14 0.14 91 1012.6
20260504180551 57 5 0.0 0.0 0.00 0.14 0.14 91 1012.7
20260504180058 58 5 0.0 0.0 0.00 0.14 0.14 91 1012.7
20260504175538 58 5 0.0 0.0 0.00 0.14 0.14 91 1012.8
20260504175033 58 5 0.0 0.0 0.00 0.14 0.14 91 1012.7
20260504174526 58 5 0.0 0.0 0.00 0.14 0.14 91 1012.9
20260504174020 57 5 0.0 0.0 0.01 0.14 0.14 90 1012.9
20260504173514 57 5 0.0 0.0 0.01 0.14 0.14 90 1013.0
20260504173235 57 5 0.0 0.0 0.01 0.14 0.14 89 1012.9
20260504173129 58 5 0.0 0.0 0.02 0.14 0.14 90 1013.0
20260504172724 58 5 0.0 0.0 0.02 0.14 0.14 89 1013.0
20260504171451 58 5 0.0 0.0 0.02 0.14 0.14 89 1013.0
20260504171208 58 5 0.0 0.0 0.03 0.14 0.14 90 1013.0
20260504170438 58 5 0.0 0.0 0.03 0.14 0.14 90 1013.0